GFSSE_prec_precacc24_105.txt.gz
Total_Precipitation_Accumulation
0.00 0.00 0.00 0.00 0.00 0.00 0.00 0.00 0.00 0.00 0.00 0.00 0.00 0.00 0.00 0.00 0.00 0.00 0.00 0.00 0.00 0.01 0.02 0.01 0.01 0.02 0.04 0.02 0.02 0.06 0.04 0.03 0.05 0.11 0.24 0.21 0.15 0.07 0.07 0.15 0.08 0.03 0.06
0.00 0.00 0.00 0.00 0.00 0.00 0.00 0.00 0.00 0.00 0.00 0.00 0.00 0.00 0.00 0.00 0.00 0.00 0.00 0.00 0.01 0.02 0.02 0.01 0.01 0.03 0.03 0.01 0.03 0.03 0.01 0.01 0.02 0.07 0.16 0.20 0.10 0.05 0.05 0.14 0.04 0.02 0.04
0.00 0.00 0.00 0.00 0.00 0.00 0.00 0.00 0.00 0.00 0.00 0.00 0.00 0.00 0.00 0.00 0.00 0.00 0.01 0.03 0.02 0.04 0.04 0.02 0.03 0.09 0.04 0.02 0.02 0.00 0.00 0.00 0.01 0.07 0.20 0.12 0.09 0.06 0.03 0.02 0.02 0.03 0.04
0.00 0.00 0.00 0.00 0.00 0.00 0.00 0.00 0.01 0.01 0.02 0.00 0.02 0.01 0.01 0.00 0.01 0.04 0.02 0.01 0.09 0.17 0.16 0.16 0.18 0.15 0.05 0.02 0.01 0.00 0.00 0.00 0.02 0.06 0.22 0.16 0.07 0.09 0.02 0.02 0.03 0.03 0.03
0.00 0.00 0.00 0.02 0.00 0.00 0.05 0.04 0.01 0.02 0.03 0.06 0.11 0.03 0.00 0.00 0.11 0.23 0.21 0.21 0.36 0.37 0.36 0.35 0.25 0.15 0.05 0.00 0.00 0.00 0.00 0.01 0.02 0.05 0.16 0.14 0.03 0.07 0.05 0.03 0.02 0.02 0.03
0.00 0.00 0.03 0.04 0.00 0.01 0.12 0.13 0.30 0.42 0.61 0.86 0.60 0.37 0.19 0.31 0.47 0.47 0.44 0.42 0.45 0.52 0.38 0.35 0.37 0.20 0.02 0.00 0.00 0.00 0.00 0.00 0.03 0.02 0.05 0.06 0.05 0.04 0.05 0.02 0.02 0.02 0.02
0.00 0.00 0.03 0.07 0.00 0.02 0.10 0.21 0.56 1.01 1.37 2.37 2.01 1.19 1.47 1.71 1.40 1.09 0.68 0.54 0.49 0.50 0.53 0.42 0.30 0.20 0.07 0.03 0.08 0.04 0.00 0.02 0.03 0.05 0.01 0.01 0.03 0.04 0.02 0.02 0.02 0.01 0.01
0.00 0.00 0.00 0.04 0.00 0.02 0.04 0.02 0.28 0.70 1.05 1.82 2.60 2.65 2.82 2.43 1.59 1.22 0.74 0.57 0.53 0.50 0.44 0.46 0.32 0.29 0.14 0.23 0.18 0.10 0.09 0.04 0.02 0.02 0.01 0.00 0.02 0.03 0.03 0.02 0.02 0.02 0.01
0.00 0.00 0.01 0.01 0.00 0.04 0.11 0.06 0.08 0.09 0.33 1.04 1.65 1.58 1.73 2.56 1.91 1.40 0.86 0.63 0.69 0.70 0.37 0.32 0.21 0.27 0.30 0.28 0.10 0.08 0.04 0.01 0.00 0.01 0.00 0.00 0.03 0.04 0.03 0.02 0.02 0.01 0.01
0.00 0.00 0.01 0.02 0.01 0.00 0.01 0.03 0.07 0.18 0.35 0.44 1.12 1.25 0.99 1.55 1.79 1.33 0.82 0.59 0.72 0.67 0.48 0.34 0.40 0.53 0.45 0.27 0.11 0.04 0.02 0.00 0.00 0.00 0.00 0.01 0.04 0.03 0.03 0.03 0.02 0.01 0.02
0.00 0.00 0.00 0.02 0.02 0.01 0.01 0.01 0.07 0.19 0.22 0.54 1.09 1.25 1.04 1.01 1.64 1.33 0.91 0.58 0.62 0.69 0.58 0.46 0.53 0.62 0.46 0.31 0.18 0.07 0.01 0.00 0.00 0.00 0.00 0.02 0.03 0.04 0.03 0.02 0.01 0.02 0.02
0.00 0.00 0.00 0.02 0.01 0.01 0.02 0.03 0.05 0.08 0.13 0.14 1.00 1.20 1.29 0.65 1.04 0.95 1.02 0.75 0.68 0.88 0.65 0.70 0.59 0.46 0.35 0.24 0.15 0.08 0.03 0.00 0.00 0.00 0.00 0.02 0.03 0.03 0.03 0.02 0.03 0.03 0.03
0.00 0.00 0.00 0.01 0.02 0.02 0.01 0.04 0.09 0.14 0.18 0.16 0.26 0.73 1.61 0.79 1.06 0.89 1.10 0.90 0.80 1.21 0.80 0.76 0.59 0.42 0.26 0.23 0.18 0.09 0.13 0.01 0.00 0.00 0.00 0.02 0.04 0.03 0.03 0.02 0.03 0.03 0.03
0.00 0.00 0.00 0.00 0.00 0.03 0.03 0.01 0.07 0.12 0.18 0.18 0.17 0.16 0.84 0.68 0.80 0.87 0.70 0.72 0.65 1.12 0.74 0.54 0.37 0.31 0.31 0.29 0.24 0.13 0.05 0.00 0.00 0.00 0.00 0.02 0.05 0.04 0.03 0.03 0.04 0.03 0.03
0.00 0.00 0.00 0.00 0.00 0.00 0.01 0.01 0.01 0.05 0.12 0.22 0.21 0.06 0.36 0.58 0.50 0.81 0.62 0.62 0.48 1.02 0.61 0.34 0.39 0.31 0.32 0.30 0.28 0.16 0.02 0.00 0.00 0.00 0.00 0.02 0.04 0.04 0.03 0.04 0.04 0.04 0.03
0.00 0.00 0.00 0.01 0.00 0.00 0.01 0.01 0.01 0.01 0.05 0.09 0.13 0.08 0.03 0.23 0.44 0.85 0.74 0.67 0.46 0.71 0.58 0.47 0.31 0.39 0.35 0.44 0.21 0.11 0.01 0.00 0.00 0.00 0.00 0.01 0.03 0.03 0.04 0.05 0.05 0.03 0.03
0.00 0.00 0.00 0.00 0.00 0.01 0.01 0.00 0.00 0.00 0.02 0.04 0.06 0.12 0.04 0.03 0.18 0.44 0.63 0.50 0.51 0.58 0.48 0.61 0.56 0.44 0.42 0.50 0.19 0.06 0.00 0.00 0.00 0.00 0.00 0.01 0.02 0.02 0.04 0.05 0.05 0.03 0.02
0.00 0.00 0.00 0.00 0.00 0.01 0.01 0.00 0.00 0.01 0.02 0.03 0.08 0.18 0.06 0.06 0.11 0.19 0.37 0.62 0.51 0.56 0.35 0.40 0.65 0.48 0.37 0.33 0.15 0.04 0.00 0.00 0.00 0.00 0.00 0.00 0.01 0.01 0.02 0.03 0.03 0.02 0.03
0.00 0.00 0.00 0.00 0.01 0.01 0.02 0.00 0.01 0.00 0.02 0.05 0.10 0.19 0.16 0.12 0.17 0.16 0.26 0.38 0.67 0.43 0.35 0.45 0.55 0.60 0.34 0.26 0.13 0.03 0.00 0.00 0.00 0.00 0.00 0.00 0.00 0.00 0.01 0.02 0.02 0.01 0.01
0.00 0.00 0.00 0.00 0.01 0.01 0.02 0.01 0.02 0.01 0.02 0.07 0.14 0.24 0.30 0.23 0.33 0.36 0.35 0.25 0.32 0.49 0.43 0.58 0.69 0.62 0.43 0.22 0.11 0.04 0.01 0.00 0.00 0.00 0.00 0.00 0.00 0.00 0.00 0.01 0.01 0.00 0.01
0.00 0.00 0.00 0.00 0.00 0.00 0.00 0.01 0.01 0.01 0.01 0.03 0.07 0.14 0.36 0.48 0.42 0.57 0.53 0.48 0.37 0.17 0.37 0.46 0.80 0.77 0.52 0.26 0.11 0.06 0.05 0.02 0.00 0.00 0.00 0.00 0.00 0.00 0.00 0.01 0.00 0.00 0.00
0.00 0.00 0.00 0.00 0.00 0.00 0.00 0.01 0.00 0.00 0.00 0.01 0.03 0.04 0.11 0.43 0.70 0.59 0.46 0.47 0.56 0.26 0.15 0.28 0.56 0.86 0.60 0.20 0.05 0.01 0.01 0.01 0.03 0.01 0.00 0.00 0.00 0.00 0.00 0.00 0.00 0.00 0.00
0.00 0.00 0.00 0.00 0.00 0.00 0.01 0.01 0.01 0.02 0.01 0.01 0.02 0.02 0.05 0.13 0.41 0.70 0.54 0.42 0.55 0.36 0.14 0.09 0.20 0.49 0.36 0.15 0.03 0.02 0.04 0.04 0.04 0.02 0.00 0.00 0.00 0.00 0.00 0.00 0.00 0.00 0.00
0.00 0.00 0.00 0.00 0.00 0.00 0.01 0.01 0.01 0.01 0.00 0.00 0.00 0.01 0.02 0.09 0.17 0.45 0.67 0.52 0.43 0.55 0.37 0.10 0.05 0.21 0.26 0.08 0.06 0.06 0.06 0.09 0.09 0.03 0.01 0.00 0.00 0.00 0.00 0.00 0.00 0.00 0.00
0.00 0.00 0.00 0.00 0.00 0.00 0.01 0.00 0.00 0.00 0.00 0.00 0.00 0.00 0.01 0.03 0.10 0.20 0.43 0.56 0.52 0.46 0.45 0.31 0.14 0.08 0.13 0.10 0.05 0.03 0.04 0.09 0.10 0.03 0.02 0.02 0.01 0.00 0.00 0.00 0.00 0.00 0.00
0.00 0.00 0.00 0.00 0.00 0.01 0.01 0.01 0.00 0.00 0.00 0.00 0.00 0.00 0.00 0.02 0.05 0.09 0.23 0.30 0.42 0.48 0.56 0.52 0.25 0.16 0.08 0.11 0.11 0.09 0.02 0.03 0.05 0.03 0.01 0.02 0.04 0.01 0.00 0.00 0.00 0.00 0.00

GFSSE_prec_precacc24_108.txt.gz
Total_Precipitation_Accumulation
0.00 0.00 0.00 0.00 0.00 0.00 0.00 0.00 0.00 0.00 0.00 0.00 0.00 0.00 0.00 0.00 0.00 0.00 0.00 0.00 0.00 0.01 0.02 0.01 0.01 0.04 0.05 0.02 0.05 0.08 0.05 0.03 0.07 0.14 0.25 0.19 0.14 0.06 0.08 0.19 0.11 0.03 0.07
0.00 0.00 0.00 0.00 0.00 0.00 0.00 0.00 0.00 0.00 0.00 0.00 0.00 0.00 0.00 0.00 0.00 0.00 0.00 0.00 0.01 0.05 0.03 0.01 0.02 0.03 0.03 0.01 0.03 0.03 0.01 0.01 0.02 0.07 0.16 0.19 0.12 0.07 0.07 0.19 0.04 0.03 0.04
0.00 0.00 0.00 0.00 0.00 0.00 0.00 0.00 0.00 0.00 0.00 0.00 0.00 0.00 0.00 0.00 0.00 0.01 0.01 0.02 0.04 0.14 0.12 0.03 0.04 0.10 0.05 0.03 0.04 0.00 0.00 0.00 0.02 0.12 0.27 0.15 0.11 0.12 0.05 0.05 0.02 0.04 0.04
0.00 0.00 0.00 0.00 0.00 0.00 0.00 0.00 0.00 0.00 0.00 0.00 0.00 0.00 0.01 0.00 0.01 0.05 0.01 0.01 0.12 0.22 0.27 0.26 0.24 0.16 0.06 0.02 0.01 0.00 0.00 0.01 0.03 0.08 0.30 0.31 0.10 0.14 0.03 0.02 0.03 0.03 0.03
0.00 0.00 0.00 0.00 0.00 0.00 0.02 0.01 0.00 0.00 0.01 0.04 0.03 0.02 0.01 0.03 0.17 0.22 0.20 0.20 0.34 0.37 0.40 0.42 0.39 0.28 0.07 0.00 0.00 0.00 0.01 0.05 0.04 0.10 0.31 0.39 0.06 0.12 0.06 0.03 0.02 0.03 0.03
0.00 0.00 0.00 0.00 0.00 0.00 0.03 0.05 0.02 0.04 0.21 0.50 0.48 0.35 0.19 0.35 0.49 0.46 0.43 0.40 0.41 0.50 0.38 0.35 0.39 0.22 0.02 0.00 0.00 0.00 0.00 0.00 0.08 0.08 0.22 0.36 0.11 0.11 0.07 0.04 0.02 0.02 0.03
0.00 0.00 0.00 0.00 0.00 0.00 0.01 0.04 0.09 0.12 0.56 0.72 0.91 0.98 1.42 1.69 1.39 1.09 0.67 0.53 0.46 0.48 0.52 0.42 0.30 0.20 0.07 0.03 0.10 0.05 0.00 0.05 0.18 0.15 0.03 0.02 0.06 0.07 0.04 0.02 0.02 0.01 0.02
0.00 0.00 0.00 0.00 0.00 0.00 0.01 0.01 0.01 0.10 0.47 0.85 1.07 1.90 2.67 2.41 1.58 1.20 0.71 0.55 0.52 0.50 0.44 0.46 0.32 0.29 0.16 0.26 0.20 0.11 0.09 0.06 0.11 0.18 0.13 0.04 0.02 0.03 0.05 0.02 0.02 0.02 0.01
0.00 0.00 0.00 0.00 0.00 0.00 0.01 0.03 0.04 0.05 0.19 0.36 0.39 0.86 1.41 2.12 1.80 1.38 0.83 0.62 0.69 0.70 0.37 0.32 0.25 0.35 0.48 0.44 0.21 0.18 0.07 0.08 0.07 0.30 0.47 0.03 0.03 0.04 0.04 0.03 0.02 0.01 0.01
0.00 0.00 0.00 0.01 0.00 0.00 0.00 0.02 0.07 0.16 0.26 0.26 0.38 0.61 0.78 1.12 1.34 1.21 0.80 0.58 0.72 0.67 0.48 0.37 0.47 0.60 0.53 0.42 0.31 0.25 0.15 0.08 0.02 0.03 0.15 0.01 0.03 0.04 0.04 0.03 0.02 0.01 0.02
0.00 0.00 0.00 0.01 0.00 0.00 0.00 0.01 0.06 0.16 0.16 0.15 0.38 0.77 0.79 0.79 1.08 1.05 0.85 0.58 0.62 0.69 0.58 0.48 0.60 0.63 0.50 0.40 0.27 0.20 0.11 0.02 0.04 0.00 0.00 0.01 0.03 0.04 0.03 0.02 0.02 0.02 0.02
0.00 0.00 0.00 0.01 0.00 0.00 0.00 0.02 0.04 0.06 0.06 0.06 0.15 0.72 1.03 0.53 0.88 0.70 0.86 0.72 0.68 0.89 0.65 0.73 0.60 0.46 0.36 0.25 0.17 0.12 0.04 0.04 0.04 0.00 0.00 0.01 0.03 0.03 0.03 0.02 0.03 0.03 0.03
0.00 0.00 0.00 0.00 0.01 0.00 0.00 0.01 0.03 0.05 0.07 0.08 0.15 0.62 1.48 0.67 0.83 0.72 0.83 0.79 0.79 1.22 0.84 0.79 0.59 0.42 0.26 0.24 0.22 0.14 0.19 0.12 0.04 0.00 0.00 0.02 0.04 0.03 0.03 0.02 0.03 0.03 0.03
0.00 0.00 0.00 0.00 0.00 0.01 0.00 0.00 0.01 0.04 0.07 0.07 0.09 0.14 0.84 0.62 0.65 0.80 0.54 0.55 0.65 1.13 0.78 0.55 0.38 0.31 0.32 0.34 0.28 0.23 0.17 0.11 0.04 0.00 0.00 0.01 0.05 0.04 0.03 0.03 0.04 0.04 0.04
0.00 0.00 0.00 0.00 0.00 0.00 0.00 0.00 0.00 0.01 0.03 0.11 0.11 0.04 0.36 0.53 0.44 0.79 0.51 0.49 0.50 1.07 0.65 0.37 0.41 0.31 0.34 0.35 0.35 0.30 0.12 0.15 0.03 0.00 0.00 0.02 0.05 0.04 0.03 0.04 0.05 0.04 0.04
0.00 0.00 0.00 0.00 0.00 0.00 0.00 0.00 0.00 0.00 0.01 0.04 0.09 0.06 0.04 0.21 0.36 0.79 0.68 0.62 0.47 0.73 0.61 0.52 0.33 0.39 0.37 0.48 0.31 0.24 0.19 0.16 0.02 0.00 0.00 0.01 0.03 0.03 0.04 0.05 0.06 0.04 0.03
0.00 0.00 0.00 0.00 0.00 0.00 0.00 0.00 0.00 0.00 0.01 0.03 0.05 0.09 0.04 0.04 0.16 0.42 0.58 0.45 0.50 0.61 0.52 0.69 0.62 0.46 0.47 0.72 0.42 0.26 0.14 0.10 0.02 0.00 0.00 0.01 0.02 0.02 0.04 0.05 0.06 0.03 0.03
0.00 0.00 0.00 0.00 0.00 0.00 0.00 0.00 0.00 0.00 0.01 0.03 0.06 0.09 0.04 0.03 0.07 0.16 0.30 0.51 0.45 0.60 0.40 0.44 0.68 0.50 0.45 0.63 0.61 0.31 0.19 0.06 0.02 0.00 0.00 0.00 0.01 0.01 0.03 0.04 0.04 0.03 0.03
0.00 0.00 0.00 0.00 0.00 0.00 0.00 0.00 0.00 0.00 0.01 0.03 0.06 0.11 0.12 0.09 0.08 0.13 0.18 0.28 0.55 0.42 0.36 0.46 0.55 0.60 0.40 0.50 0.62 0.42 0.19 0.03 0.01 0.00 0.00 0.00 0.00 0.01 0.01 0.02 0.02 0.01 0.02
0.00 0.00 0.00 0.00 0.00 0.00 0.00 0.00 0.00 0.00 0.00 0.01 0.04 0.15 0.21 0.16 0.23 0.29 0.24 0.20 0.32 0.48 0.43 0.58 0.69 0.65 0.53 0.43 0.55 0.51 0.14 0.00 0.00 0.00 0.00 0.00 0.00 0.00 0.01 0.01 0.01 0.01 0.01
0.00 0.00 0.00 0.00 0.00 0.00 0.00 0.00 0.00 0.00 0.00 0.01 0.03 0.08 0.31 0.39 0.38 0.50 0.48 0.44 0.35 0.16 0.37 0.46 0.81 0.86 0.72 0.50 0.59 0.58 0.20 0.04 0.00 0.00 0.00 0.00 0.00 0.00 0.00 0.02 0.01 0.00 0.00
0.00 0.00 0.00 0.00 0.00 0.00 0.00 0.00 0.00 0.00 0.00 0.01 0.01 0.03 0.10 0.41 0.68 0.59 0.47 0.46 0.55 0.25 0.15 0.28 0.59 1.02 0.88 0.53 0.41 0.20 0.10 0.03 0.04 0.01 0.00 0.00 0.00 0.00 0.00 0.01 0.01 0.00 0.00
0.00 0.00 0.00 0.00 0.00 0.00 0.00 0.00 0.00 0.00 0.01 0.01 0.01 0.02 0.04 0.13 0.41 0.70 0.56 0.42 0.55 0.36 0.14 0.09 0.22 0.66 0.66 0.54 0.18 0.06 0.02 0.02 0.03 0.03 0.01 0.00 0.00 0.00 0.00 0.00 0.00 0.00 0.00
0.00 0.00 0.00 0.00 0.00 0.00 0.00 0.00 0.00 0.00 0.00 0.00 0.00 0.01 0.02 0.09 0.17 0.45 0.68 0.52 0.43 0.55 0.36 0.10 0.04 0.26 0.48 0.32 0.20 0.10 0.02 0.01 0.02 0.02 0.02 0.00 0.01 0.00 0.00 0.00 0.00 0.00 0.00
0.00 0.00 0.00 0.00 0.00 0.00 0.00 0.00 0.00 0.00 0.00 0.00 0.00 0.00 0.01 0.03 0.10 0.21 0.43 0.56 0.52 0.44 0.43 0.30 0.14 0.08 0.23 0.25 0.17 0.11 0.10 0.08 0.08 0.03 0.02 0.01 0.01 0.00 0.00 0.00 0.00 0.00 0.00
0.00 0.00 0.00 0.00 0.00 0.00 0.00 0.00 0.00 0.00 0.00 0.00 0.00 0.00 0.01 0.02 0.05 0.09 0.24 0.30 0.42 0.47 0.54 0.48 0.24 0.15 0.09 0.16 0.17 0.14 0.09 0.07 0.06 0.04 0.02 0.02 0.02 0.00 0.00 0.00 0.00 0.00 0.00

GFSSE_prec_precacc24_111.txt.gz
Total_Precipitation_Accumulation
0.00 0.00 0.00 0.00 0.00 0.00 0.00 0.00 0.00 0.00 0.00 0.00 0.00 0.00 0.00 0.00 0.00 0.00 0.00 0.00 0.00 0.01 0.02 0.01 0.01 0.04 0.06 0.03 0.07 0.10 0.06 0.04 0.12 0.24 0.33 0.24 0.13 0.05 0.08 0.19 0.11 0.03 0.07
0.00 0.00 0.00 0.00 0.00 0.00 0.00 0.00 0.00 0.00 0.00 0.00 0.00 0.00 0.00 0.00 0.00 0.00 0.00 0.00 0.01 0.05 0.03 0.01 0.02 0.03 0.03 0.01 0.03 0.03 0.01 0.01 0.03 0.12 0.20 0.19 0.11 0.06 0.08 0.19 0.04 0.03 0.05
0.00 0.00 0.00 0.00 0.00 0.00 0.00 0.00 0.00 0.00 0.00 0.00 0.00 0.00 0.00 0.00 0.00 0.01 0.01 0.02 0.04 0.14 0.17 0.03 0.03 0.09 0.04 0.03 0.04 0.00 0.00 0.00 0.03 0.13 0.28 0.15 0.10 0.14 0.05 0.05 0.02 0.04 0.05
0.00 0.00 0.00 0.00 0.00 0.00 0.00 0.00 0.00 0.00 0.00 0.00 0.00 0.00 0.01 0.00 0.01 0.05 0.01 0.01 0.10 0.19 0.27 0.27 0.23 0.16 0.06 0.02 0.01 0.00 0.00 0.02 0.03 0.08 0.30 0.41 0.12 0.20 0.02 0.02 0.03 0.04 0.03
0.00 0.00 0.00 0.00 0.00 0.00 0.00 0.00 0.00 0.00 0.00 0.00 0.00 0.00 0.00 0.03 0.17 0.22 0.20 0.19 0.30 0.32 0.39 0.41 0.38 0.28 0.07 0.00 0.00 0.00 0.01 0.05 0.05 0.11 0.33 0.65 0.09 0.19 0.06 0.04 0.03 0.04 0.03
0.00 0.00 0.00 0.00 0.00 0.00 0.00 0.00 0.00 0.00 0.03 0.06 0.06 0.09 0.15 0.34 0.49 0.46 0.43 0.39 0.37 0.43 0.36 0.34 0.41 0.22 0.02 0.00 0.00 0.00 0.00 0.01 0.13 0.14 0.23 0.69 0.15 0.23 0.10 0.04 0.03 0.03 0.04
0.00 0.00 0.00 0.00 0.00 0.00 0.00 0.00 0.00 0.01 0.02 0.06 0.16 0.20 0.93 1.63 1.38 1.09 0.67 0.52 0.42 0.42 0.49 0.42 0.30 0.20 0.07 0.03 0.10 0.05 0.02 0.12 0.32 0.33 0.07 0.31 0.16 0.11 0.06 0.02 0.02 0.02 0.02
0.00 0.00 0.00 0.00 0.00 0.00 0.01 0.01 0.01 0.08 0.27 0.40 0.44 0.54 1.01 1.88 1.54 1.18 0.70 0.53 0.49 0.49 0.44 0.46 0.32 0.29 0.17 0.27 0.25 0.15 0.15 0.20 0.26 0.36 0.31 0.23 0.21 0.05 0.07 0.02 0.02 0.02 0.01
0.00 0.00 0.00 0.00 0.00 0.00 0.01 0.03 0.04 0.05 0.16 0.29 0.35 0.35 0.32 1.07 1.57 1.34 0.74 0.58 0.68 0.70 0.37 0.34 0.29 0.39 0.57 0.53 0.22 0.24 0.28 0.30 0.22 0.52 0.74 0.27 0.12 0.05 0.03 0.02 0.02 0.01 0.01
0.00 0.00 0.00 0.00 0.00 0.00 0.00 0.02 0.07 0.16 0.26 0.25 0.35 0.36 0.24 0.43 0.83 0.96 0.72 0.55 0.71 0.67 0.48 0.39 0.48 0.62 0.55 0.42 0.31 0.28 0.25 0.24 0.07 0.11 0.42 0.13 0.07 0.04 0.03 0.03 0.03 0.02 0.02
0.00 0.00 0.00 0.00 0.00 0.00 0.00 0.01 0.06 0.16 0.16 0.15 0.18 0.22 0.28 0.38 0.55 0.73 0.63 0.50 0.64 0.69 0.59 0.49 0.60 0.63 0.50 0.40 0.27 0.20 0.13 0.06 0.11 0.06 0.03 0.08 0.04 0.04 0.03 0.02 0.03 0.02 0.02
0.00 0.00 0.00 0.00 0.00 0.00 0.00 0.02 0.04 0.06 0.05 0.06 0.07 0.16 0.18 0.23 0.64 0.54 0.62 0.63 0.67 0.89 0.65 0.74 0.60 0.46 0.36 0.25 0.17 0.12 0.04 0.05 0.08 0.07 0.03 0.09 0.05 0.03 0.03 0.02 0.03 0.03 0.03
0.00 0.00 0.00 0.00 0.00 0.00 0.00 0.01 0.03 0.04 0.04 0.08 0.12 0.30 0.52 0.49 0.76 0.66 0.62 0.61 0.79 1.23 0.84 0.79 0.59 0.42 0.26 0.24 0.22 0.14 0.20 0.14 0.11 0.07 0.02 0.06 0.08 0.03 0.02 0.02 0.03 0.03 0.03
0.00 0.00 0.00 0.00 0.00 0.00 0.00 0.00 0.01 0.02 0.02 0.04 0.09 0.11 0.65 0.56 0.63 0.77 0.46 0.49 0.66 1.14 0.80 0.55 0.38 0.31 0.32 0.34 0.28 0.23 0.17 0.15 0.13 0.06 0.03 0.05 0.08 0.04 0.02 0.03 0.04 0.04 0.04
0.00 0.00 0.00 0.00 0.00 0.00 0.00 0.00 0.00 0.01 0.02 0.03 0.06 0.03 0.36 0.53 0.44 0.78 0.48 0.45 0.49 1.10 0.66 0.37 0.41 0.31 0.34 0.35 0.35 0.30 0.13 0.20 0.10 0.07 0.05 0.04 0.05 0.04 0.03 0.04 0.05 0.04 0.04
0.00 0.00 0.00 0.00 0.00 0.00 0.00 0.00 0.00 0.00 0.01 0.02 0.03 0.02 0.04 0.21 0.36 0.78 0.66 0.57 0.46 0.74 0.63 0.52 0.33 0.39 0.37 0.48 0.32 0.25 0.20 0.23 0.07 0.04 0.02 0.02 0.03 0.03 0.04 0.05 0.06 0.04 0.04
0.00 0.00 0.00 0.00 0.00 0.00 0.00 0.00 0.00 0.00 0.01 0.02 0.02 0.02 0.02 0.03 0.16 0.41 0.52 0.42 0.50 0.62 0.53 0.69 0.62 0.46 0.47 0.73 0.43 0.29 0.18 0.24 0.11 0.02 0.00 0.01 0.02 0.02 0.04 0.05 0.06 0.04 0.03
0.00 0.00 0.00 0.00 0.00 0.00 0.00 0.00 0.00 0.00 0.01 0.03 0.05 0.05 0.03 0.03 0.07 0.15 0.25 0.47 0.45 0.60 0.43 0.46 0.69 0.50 0.45 0.65 0.64 0.35 0.28 0.23 0.25 0.03 0.00 0.00 0.01 0.01 0.03 0.04 0.05 0.03 0.03
0.00 0.00 0.00 0.00 0.00 0.00 0.00 0.00 0.00 0.00 0.01 0.03 0.06 0.09 0.10 0.08 0.07 0.11 0.14 0.25 0.52 0.41 0.36 0.48 0.57 0.60 0.41 0.51 0.67 0.50 0.36 0.26 0.19 0.02 0.00 0.00 0.00 0.01 0.01 0.03 0.03 0.02 0.02
0.00 0.00 0.00 0.00 0.00 0.00 0.00 0.00 0.00 0.00 0.00 0.01 0.03 0.12 0.17 0.15 0.16 0.18 0.20 0.17 0.27 0.47 0.43 0.59 0.70 0.65 0.53 0.43 0.59 0.65 0.36 0.36 0.17 0.01 0.00 0.00 0.00 0.00 0.01 0.02 0.01 0.01 0.01
0.00 0.00 0.00 0.00 0.00 0.00 0.00 0.00 0.00 0.00 0.00 0.00 0.01 0.03 0.23 0.33 0.28 0.32 0.29 0.33 0.28 0.15 0.37 0.47 0.81 0.86 0.73 0.52 0.77 0.86 0.69 0.34 0.23 0.03 0.01 0.00 0.00 0.00 0.00 0.02 0.01 0.00 0.00
0.00 0.00 0.00 0.00 0.00 0.00 0.00 0.00 0.00 0.00 0.00 0.01 0.00 0.01 0.06 0.29 0.47 0.42 0.36 0.31 0.46 0.24 0.14 0.28 0.61 1.03 0.89 0.58 0.63 0.69 0.51 0.30 0.13 0.03 0.01 0.00 0.00 0.00 0.00 0.01 0.01 0.00 0.00
0.00 0.00 0.00 0.00 0.00 0.00 0.00 0.00 0.00 0.00 0.01 0.01 0.01 0.01 0.03 0.09 0.35 0.61 0.49 0.37 0.52 0.35 0.14 0.09 0.22 0.66 0.66 0.63 0.37 0.43 0.15 0.12 0.06 0.04 0.02 0.00 0.01 0.00 0.00 0.00 0.00 0.00 0.00
0.00 0.00 0.00 0.00 0.00 0.00 0.00 0.00 0.00 0.00 0.00 0.00 0.00 0.01 0.02 0.09 0.17 0.45 0.68 0.51 0.42 0.55 0.36 0.10 0.04 0.26 0.50 0.47 0.48 0.40 0.06 0.01 0.02 0.03 0.03 0.00 0.01 0.01 0.00 0.00 0.00 0.00 0.00
0.00 0.00 0.00 0.02 0.03 0.00 0.00 0.00 0.00 0.00 0.00 0.00 0.00 0.00 0.01 0.03 0.10 0.21 0.43 0.56 0.52 0.44 0.43 0.30 0.14 0.08 0.24 0.31 0.36 0.27 0.16 0.08 0.06 0.03 0.03 0.02 0.01 0.00 0.00 0.00 0.00 0.00 0.00
0.00 0.00 0.00 0.00 0.03 0.05 0.01 0.00 0.00 0.00 0.00 0.00 0.00 0.00 0.01 0.02 0.05 0.09 0.23 0.30 0.42 0.47 0.54 0.48 0.24 0.15 0.08 0.15 0.29 0.21 0.15 0.13 0.08 0.05 0.05 0.06 0.03 0.00 0.00 0.00 0.00 0.00 0.00

GFSSE_prec_precacc24_114.txt.gz
Total_Precipitation_Accumulation
0.00 0.00 0.00 0.00 0.00 0.00 0.00 0.00 0.00 0.00 0.00 0.00 0.00 0.00 0.00 0.00 0.00 0.00 0.00 0.00 0.00 0.01 0.02 0.01 0.01 0.04 0.05 0.03 0.09 0.09 0.06 0.04 0.13 0.29 0.39 0.26 0.14 0.04 0.08 0.19 0.11 0.02 0.07
0.00 0.00 0.00 0.00 0.00 0.00 0.00 0.00 0.00 0.00 0.00 0.00 0.00 0.00 0.00 0.00 0.00 0.00 0.00 0.00 0.01 0.05 0.03 0.01 0.02 0.04 0.03 0.04 0.05 0.04 0.01 0.01 0.04 0.14 0.21 0.21 0.11 0.06 0.08 0.19 0.04 0.03 0.04
0.00 0.00 0.00 0.00 0.00 0.00 0.00 0.00 0.00 0.00 0.00 0.00 0.00 0.00 0.00 0.00 0.00 0.01 0.01 0.02 0.04 0.14 0.16 0.03 0.03 0.09 0.04 0.03 0.05 0.03 0.01 0.00 0.02 0.12 0.28 0.15 0.10 0.14 0.04 0.05 0.02 0.03 0.04
0.00 0.00 0.00 0.00 0.00 0.00 0.00 0.00 0.00 0.00 0.00 0.00 0.00 0.00 0.01 0.00 0.01 0.05 0.01 0.01 0.10 0.19 0.26 0.26 0.22 0.15 0.06 0.02 0.02 0.05 0.02 0.02 0.03 0.08 0.32 0.57 0.12 0.20 0.02 0.01 0.03 0.04 0.03
0.00 0.00 0.00 0.00 0.00 0.00 0.00 0.00 0.00 0.00 0.00 0.00 0.00 0.00 0.00 0.03 0.17 0.22 0.20 0.19 0.29 0.31 0.37 0.39 0.37 0.27 0.07 0.00 0.00 0.01 0.03 0.05 0.05 0.11 0.34 0.74 0.12 0.19 0.08 0.05 0.05 0.04 0.05
0.00 0.00 0.00 0.00 0.00 0.00 0.00 0.00 0.00 0.00 0.00 0.01 0.01 0.01 0.04 0.29 0.48 0.46 0.43 0.39 0.37 0.42 0.33 0.32 0.41 0.21 0.02 0.00 0.00 0.00 0.03 0.05 0.20 0.15 0.23 0.75 0.39 0.31 0.12 0.05 0.04 0.05 0.05
0.00 0.00 0.00 0.00 0.00 0.00 0.00 0.00 0.00 0.00 0.01 0.02 0.07 0.16 0.57 1.01 1.03 1.00 0.67 0.52 0.39 0.37 0.47 0.42 0.30 0.20 0.07 0.03 0.11 0.09 0.04 0.17 0.34 0.51 0.16 0.50 0.61 0.26 0.06 0.01 0.02 0.02 0.03
0.00 0.00 0.00 0.00 0.00 0.00 0.01 0.01 0.01 0.04 0.11 0.16 0.26 0.46 0.69 0.59 0.55 0.69 0.59 0.51 0.47 0.43 0.44 0.46 0.32 0.29 0.17 0.27 0.25 0.24 0.22 0.21 0.26 0.46 0.58 0.28 0.62 0.27 0.07 0.02 0.01 0.01 0.01
0.00 0.00 0.00 0.00 0.00 0.00 0.01 0.03 0.04 0.03 0.08 0.13 0.25 0.29 0.18 0.48 0.62 0.54 0.47 0.47 0.63 0.62 0.36 0.33 0.29 0.39 0.57 0.53 0.22 0.26 0.28 0.31 0.24 0.69 1.03 0.37 0.31 0.33 0.04 0.02 0.01 0.01 0.01
0.00 0.00 0.00 0.00 0.00 0.00 0.00 0.02 0.07 0.16 0.25 0.21 0.28 0.33 0.20 0.17 0.10 0.14 0.38 0.39 0.63 0.64 0.48 0.39 0.48 0.62 0.55 0.46 0.47 0.41 0.31 0.25 0.07 0.12 0.45 0.24 0.21 0.08 0.03 0.03 0.02 0.02 0.02
0.00 0.00 0.00 0.00 0.00 0.00 0.00 0.01 0.06 0.16 0.16 0.15 0.18 0.22 0.22 0.23 0.09 0.11 0.20 0.32 0.62 0.66 0.59 0.49 0.60 0.63 0.50 0.43 0.31 0.24 0.18 0.13 0.12 0.06 0.04 0.14 0.24 0.13 0.04 0.02 0.02 0.02 0.03
0.00 0.00 0.00 0.00 0.00 0.00 0.00 0.02 0.04 0.06 0.05 0.06 0.07 0.11 0.13 0.12 0.11 0.17 0.29 0.41 0.66 0.89 0.65 0.74 0.60 0.46 0.36 0.25 0.17 0.13 0.05 0.06 0.08 0.07 0.05 0.20 0.22 0.08 0.03 0.02 0.03 0.03 0.04
0.00 0.00 0.00 0.00 0.00 0.00 0.00 0.01 0.03 0.04 0.04 0.08 0.12 0.18 0.18 0.19 0.19 0.29 0.44 0.50 0.78 1.23 0.84 0.79 0.59 0.42 0.26 0.24 0.22 0.14 0.20 0.14 0.11 0.07 0.05 0.14 0.20 0.09 0.03 0.02 0.03 0.03 0.03
0.00 0.00 0.00 0.00 0.00 0.00 0.00 0.00 0.01 0.02 0.02 0.03 0.06 0.08 0.13 0.17 0.29 0.56 0.41 0.46 0.66 1.14 0.80 0.55 0.38 0.31 0.32 0.34 0.28 0.23 0.17 0.15 0.13 0.07 0.06 0.10 0.19 0.07 0.03 0.02 0.04 0.04 0.04
0.00 0.00 0.00 0.00 0.00 0.00 0.00 0.00 0.00 0.01 0.02 0.02 0.03 0.03 0.24 0.45 0.39 0.75 0.48 0.45 0.49 1.10 0.66 0.37 0.41 0.31 0.34 0.35 0.35 0.30 0.13 0.20 0.11 0.12 0.16 0.14 0.17 0.10 0.03 0.04 0.05 0.04 0.04
0.00 0.00 0.00 0.00 0.00 0.00 0.00 0.00 0.00 0.00 0.01 0.01 0.01 0.01 0.03 0.20 0.36 0.78 0.66 0.57 0.47 0.76 0.64 0.52 0.33 0.39 0.37 0.48 0.32 0.25 0.20 0.23 0.08 0.08 0.14 0.14 0.14 0.11 0.05 0.05 0.06 0.04 0.04
0.00 0.00 0.00 0.00 0.00 0.00 0.00 0.00 0.00 0.00 0.01 0.01 0.01 0.01 0.01 0.03 0.15 0.41 0.52 0.42 0.50 0.62 0.54 0.69 0.62 0.46 0.47 0.73 0.43 0.29 0.18 0.24 0.12 0.04 0.08 0.11 0.09 0.05 0.04 0.05 0.06 0.04 0.04
0.00 0.00 0.00 0.00 0.00 0.00 0.00 0.00 0.00 0.00 0.01 0.02 0.01 0.02 0.02 0.02 0.06 0.13 0.25 0.47 0.45 0.60 0.43 0.46 0.69 0.50 0.45 0.65 0.64 0.36 0.28 0.23 0.28 0.07 0.04 0.04 0.03 0.02 0.03 0.04 0.05 0.03 0.04
0.00 0.00 0.00 0.00 0.00 0.00 0.00 0.00 0.00 0.00 0.01 0.02 0.04 0.04 0.05 0.04 0.06 0.09 0.09 0.23 0.51 0.41 0.36 0.48 0.57 0.60 0.41 0.51 0.67 0.51 0.36 0.28 0.32 0.27 0.04 0.01 0.01 0.01 0.01 0.03 0.03 0.02 0.02
0.00 0.00 0.00 0.00 0.00 0.00 0.00 0.01 0.00 0.00 0.00 0.01 0.03 0.09 0.10 0.09 0.09 0.12 0.13 0.14 0.27 0.47 0.43 0.59 0.70 0.65 0.54 0.44 0.59 0.66 0.36 0.38 0.31 0.36 0.16 0.01 0.00 0.00 0.01 0.02 0.02 0.02 0.02
0.00 0.00 0.00 0.00 0.00 0.00 0.00 0.01 0.00 0.00 0.00 0.00 0.01 0.03 0.20 0.25 0.19 0.21 0.16 0.23 0.27 0.15 0.37 0.47 0.82 0.87 0.74 0.53 0.78 0.89 0.70 0.36 0.35 0.30 0.16 0.03 0.00 0.00 0.00 0.02 0.01 0.00 0.01
0.00 0.00 0.00 0.00 0.00 0.00 0.00 0.01 0.04 0.02 0.00 0.00 0.00 0.01 0.05 0.26 0.40 0.34 0.28 0.22 0.39 0.24 0.15 0.29 0.62 1.04 0.91 0.60 0.66 0.75 0.58 0.39 0.29 0.35 0.17 0.02 0.00 0.00 0.00 0.01 0.01 0.00 0.00
0.00 0.00 0.00 0.00 0.00 0.00 0.00 0.06 0.08 0.07 0.04 0.02 0.01 0.00 0.01 0.05 0.29 0.50 0.36 0.25 0.47 0.34 0.14 0.10 0.22 0.67 0.67 0.64 0.38 0.45 0.20 0.20 0.14 0.25 0.21 0.02 0.01 0.00 0.00 0.00 0.00 0.00 0.00
0.00 0.00 0.00 0.00 0.00 0.00 0.00 0.00 0.01 0.00 0.00 0.00 0.00 0.01 0.01 0.01 0.05 0.30 0.48 0.31 0.31 0.52 0.36 0.10 0.05 0.26 0.50 0.48 0.50 0.45 0.10 0.04 0.05 0.14 0.15 0.03 0.01 0.01 0.00 0.00 0.00 0.00 0.00
0.00 0.00 0.00 0.03 0.12 0.11 0.08 0.04 0.01 0.01 0.00 0.00 0.00 0.00 0.01 0.02 0.04 0.10 0.29 0.41 0.41 0.39 0.42 0.30 0.14 0.08 0.24 0.31 0.37 0.35 0.31 0.14 0.10 0.07 0.10 0.06 0.03 0.01 0.00 0.00 0.00 0.00 0.00
0.00 0.00 0.00 0.00 0.05 0.16 0.13 0.15 0.12 0.07 0.02 0.01 0.00 0.00 0.01 0.02 0.03 0.07 0.20 0.28 0.40 0.44 0.52 0.47 0.23 0.15 0.08 0.15 0.30 0.25 0.26 0.21 0.13 0.09 0.10 0.12 0.08 0.04 0.01 0.00 0.00 0.00 0.00